Theta_e
352 353 352 351 344 344 343 343 343 338 339 345 345 352 354 358 356 358 357 345 343 341 339 340 343 347 348 349 349 348 347 347 346 345 345 346 346 344
351 350 352 352 351 349 350 347 344 341 337 343 349 350 352 354 357 359 353 346 342 340 338 337 338 340 343 345 345 345 345 345 345 343 342 343 344 345
352 350 350 351 350 351 350 349 347 344 340 345 347 352 354 355 356 358 356 356 353 339 338 336 335 336 338 339 340 341 343 343 343 342 342 341 342 343
348 349 349 349 349 351 348 349 349 348 345 344 347 351 353 356 355 355 353 353 357 344 338 336 334 333 333 333 333 334 335 337 338 338 339 340 340 340
350 350 350 349 348 349 348 346 347 348 346 343 343 348 351 351 353 355 352 353 355 347 341 339 337 336 333 331 328 326 327 328 329 328 331 333 336 339
352 351 352 350 349 350 349 348 346 346 346 343 344 345 348 351 351 350 347 350 349 350 347 342 340 340 335 331 331 331 324 322 321 320 322 324 326 330
350 350 349 347 342 345 350 349 348 346 345 344 344 344 345 347 347 349 346 348 350 344 348 346 348 348 344 334 332 329 326 327 325 320 318 318 321 322
348 345 343 341 342 337 337 336 344 346 346 343 343 342 343 346 346 345 345 344 342 341 346 339 348 340 337 334 325 322 321 322 321 321 320 319 320 319
347 343 341 340 341 343 331 329 329 328 334 346 344 343 343 347 338 340 344 344 336 330 340 332 341 339 332 328 323 320 318 317 316 316 315 316 315 315
343 340 337 334 338 339 333 332 330 331 332 332 333 332 335 336 337 342 345 346 345 327 329 329 335 338 338 326 323 321 317 315 314 314 313 312 310 312
332 330 329 331 325 332 331 329 327 326 323 322 322 321 322 323 330 339 337 335 336 330 318 326 329 335 337 326 326 320 315 313 311 311 312 311 309 312
325 324 320 320 317 319 326 326 324 323 323 322 321 321 322 322 322 326 331 328 329 319 318 320 319 326 331 335 321 321 318 310 308 308 309 309 307 319
320 319 317 313 312 313 318 327 322 322 319 319 317 317 317 318 318 319 317 318 314 309 310 321 314 318 320 320 323 315 315 309 309 309 307 306 306 308
314 314 311 308 308 310 315 313 314 316 316 314 313 312 312 312 314 313 313 313 312 308 308 312 310 310 311 313 314 312 311 308 307 306 305 306 305 307
314 312 309 306 307 309 310 311 313 314 312 310 309 308 308 309 310 310 312 310 309 308 306 305 305 307 309 310 308 303 301 303 304 303 304 304 304 305
314 311 310 309 308 308 307 308 309 309 308 307 306 306 306 305 304 305 304 306 303 301 303 304 303 304 305 307 302 300 300 299 302 302 302 303 304 304
312 312 310 307 305 304 303 303 303 303 301 302 302 302 301 301 299 301 300 300 298 297 297 299 302 303 304 304 300 299 299 299 300 301 301 300 302 304
310 308 306 306 304 303 302 301 300 300 299 299 299 299 298 298 297 297 298 297 296 296 296 297 298 298 299 301 302 298 298 298 299 300 301 299 300 303
306 305 302 302 302 301 300 299 298 298 298 297 296 297 297 296 295 295 295 295 295 295 295 296 295 295 293 292 298 301 297 298 298 298 299 299 298 301
303 302 301 300 300 299 299 298 298 297 296 296 296 296 295 295 294 294 294 294 294 294 294 294 294 295 293 292 293 298 300 298 298 298 299 301 302 304
300 301 300 299 299 299 298 298 297 296 295 295 294 295 295 294 293 293 293 292 293 293 292 293 295 298 298 298 296 296 300 301 301 299 300 299 298 299
300 299 299 299 299 298 297 297 295 294 294 294 293 293 293 294 293 293 293 293 293 293 293 295 297 297 296 295 294 295 297 300 302 303 303 301 298 295
300 299 299 298 298 297 297 296 295 294 294 293 293 293 293 293 293 293 293 293 293 293 294 294 296 297 296 295 294 294 295 297 299 299 301 303 303 304
Wind_Speed
1 1 1 2 3 2 1 1 1 1 2 3 3 5 5 4 5 7 7 4 7 6 6 6 6 5 6 6 5 6 7 7 6 6 7 8 8 10
1 3 2 1 1 0 0 1 0 1 0 1 1 3 4 5 6 8 7 6 3 6 6 7 6 6 6 6 6 7 8 8 8 8 9 9 9 9
2 3 3 2 1 1 1 0 1 2 2 1 1 3 3 4 5 6 6 6 4 3 6 6 7 7 6 6 8 9 9 10 10 9 9 10 10 10
4 3 4 2 3 2 1 2 1 1 2 3 1 2 3 3 4 5 6 5 6 9 7 3 2 6 6 8 9 10 10 9 9 10 10 11 11 12
4 3 5 5 4 3 3 3 2 1 1 1 1 1 1 3 2 3 5 4 7 10 10 9 9 9 9 10 6 9 8 8 8 8 7 9 10 11
4 4 5 5 6 6 5 4 3 2 1 1 1 0 1 1 2 3 4 3 5 6 7 9 10 12 15 13 13 9 5 5 6 5 6 7 7 8
3 3 1 2 3 5 4 4 4 2 2 1 1 0 0 1 2 2 1 1 2 7 4 6 6 8 8 10 12 17 14 11 6 6 6 5 6 7
5 4 3 1 1 1 1 1 4 4 3 2 1 1 1 0 0 1 1 2 2 6 4 6 5 9 8 9 14 19 19 18 16 13 9 6 7 8
3 4 2 2 2 5 8 8 8 8 5 1 0 1 2 2 0 0 1 2 3 7 2 3 4 8 8 9 16 19 21 20 19 18 18 14 10 7
5 5 1 3 2 4 5 5 7 7 4 5 5 4 2 3 2 2 2 3 4 7 8 3 4 4 5 7 18 17 20 21 22 21 20 20 15 12
5 3 3 2 5 7 5 8 8 9 10 13 11 8 15 16 7 3 2 2 2 4 10 4 5 3 4 6 8 12 18 16 18 20 21 21 19 11
5 5 8 5 1 2 6 6 9 5 7 8 8 12 13 14 18 10 4 4 3 2 8 3 4 4 0 4 8 8 8 14 14 17 18 18 20 10
3 3 4 8 9 9 7 5 6 7 9 8 8 8 9 11 10 10 11 7 6 5 8 2 6 4 2 3 2 8 8 9 10 9 12 14 14 13
5 4 6 14 15 13 10 13 12 8 7 8 8 8 8 8 8 9 11 11 10 10 9 9 3 4 3 3 3 7 7 8 9 9 10 9 9 9
6 8 9 14 14 14 16 15 11 7 7 8 8 7 7 6 6 5 7 10 11 11 10 10 6 5 3 2 3 5 6 6 9 10 10 9 9 9
10 10 11 14 16 10 10 10 7 7 8 7 7 6 5 7 7 6 5 3 5 7 10 12 9 6 3 4 4 5 7 6 9 8 9 8 7 7
8 5 6 6 7 6 7 8 7 7 7 5 6 6 6 5 6 6 6 5 7 5 7 8 10 7 4 6 3 6 7 7 8 10 10 9 7 8
4 4 5 5 5 4 4 5 6 8 6 5 5 6 5 5 6 5 5 6 6 6 6 6 7 5 4 4 7 7 6 8 8 9 9 8 9 9
6 5 5 5 4 4 4 5 5 4 5 5 5 5 5 4 4 5 5 5 6 5 6 7 7 8 6 5 3 4 7 8 8 7 7 7 9 9
4 6 7 5 5 5 5 5 6 5 4 5 5 5 5 4 3 4 5 5 4 4 5 5 6 7 6 5 4 6 7 7 8 8 8 7 6 8
4 4 4 5 6 5 5 5 4 5 4 4 4 4 4 4 4 5 4 4 3 4 6 6 6 11 5 4 4 5 7 8 8 9 10 9 9 7
7 7 4 5 5 6 6 5 5 4 4 4 4 4 3 2 2 3 3 4 5 5 5 4 5 5 4 5 6 9 8 10 9 10 9 7 6 7
7 6 5 6 5 6 5 5 5 4 4 4 3 3 2 2 1 2 3 3 3 3 5 5 5 4 4 5 7 7 10 11 11 10 8 6 12 15
Wind_Direction
1 342 25 136 183 198 261 293 129 49 328 340 338 350 356 13 7 52 34 25 167 194 231 232 230 219 214 233 211 210 217 225 217 219 229 231 230 238
274 314 333 329 355 102 235 226 278 88 307 275 306 316 328 34 27 63 51 30 137 191 220 244 245 238 229 241 246 228 217 220 211 212 225 234 239 241
239 252 273 279 295 277 191 181 173 159 216 289 301 330 1 22 40 52 39 46 70 209 220 232 250 250 249 238 243 241 237 225 219 225 220 222 227 235
216 225 254 245 227 223 219 205 209 192 179 207 287 345 20 355 3 23 35 30 27 33 68 83 241 266 264 250 249 239 237 236 228 224 227 228 228 229
233 242 232 211 238 207 201 181 172 181 160 170 234 319 327 348 1 23 29 24 23 21 44 49 46 47 44 19 290 254 233 231 234 237 254 248 243 239
243 259 280 218 201 196 192 195 177 172 172 187 218 226 287 350 27 20 24 29 25 23 39 36 40 41 35 29 28 22 305 252 264 265 237 250 268 272
250 222 247 332 312 237 180 182 180 167 182 204 217 224 143 66 44 355 330 4 89 21 42 48 59 57 40 37 34 37 40 34 357 299 290 277 269 287
215 207 205 268 81 304 207 158 186 179 196 191 186 217 209 235 53 17 11 31 37 28 356 46 41 61 49 48 47 56 56 55 56 48 30 354 324 317
202 195 216 315 280 130 99 87 70 58 55 84 261 279 264 185 224 123 75 81 84 3 345 71 40 77 59 67 56 57 53 47 42 40 34 24 18 18
134 124 304 296 307 150 130 98 70 44 59 77 76 31 296 289 276 356 17 107 120 50 6 64 15 67 72 73 57 53 49 41 34 30 28 20 11 18
70 78 97 300 298 190 131 117 102 86 72 75 67 53 54 52 44 152 64 142 99 53 20 343 8 356 103 66 63 61 51 45 33 25 24 21 9 8
52 58 31 72 9 175 124 128 108 95 99 68 48 43 41 42 43 46 25 92 76 69 23 1 354 1 82 112 56 37 39 31 34 21 20 22 18 18
104 74 49 56 61 59 76 94 102 111 81 76 69 58 50 47 49 49 45 56 91 68 352 315 8 4 348 310 68 34 39 28 25 22 18 19 11 17
108 84 87 75 58 53 71 83 79 82 84 80 73 58 56 55 59 63 62 69 71 74 26 23 58 7 332 316 333 9 11 30 19 14 5 360 4 5
80 86 84 87 86 69 60 56 62 71 77 74 71 67 56 47 51 64 76 76 68 51 35 29 18 356 355 9 357 16 356 359 12 3 359 359 357 355
81 72 67 72 62 54 62 52 56 69 78 83 82 72 60 49 49 39 48 56 65 40 27 16 11 7 11 67 52 27 9 353 352 358 347 343 346 354
99 85 77 64 62 55 44 59 59 54 59 58 76 77 65 62 51 31 45 60 66 34 22 11 4 14 47 31 51 23 3 355 348 344 345 341 347 348
65 90 86 85 86 68 88 82 60 66 59 53 48 67 59 50 55 48 49 54 60 51 37 23 19 21 29 68 37 8 0 347 344 342 343 338 338 344
101 101 91 89 89 99 103 95 88 74 99 101 80 67 70 70 61 53 47 49 49 39 36 27 24 20 23 13 336 322 339 343 338 339 340 341 329 325
76 111 109 112 110 100 95 100 99 91 75 76 80 76 71 69 78 72 61 47 43 40 37 32 31 17 9 358 328 322 321 333 339 337 339 331 321 296
62 78 101 108 108 102 93 93 102 99 102 101 75 70 68 64 57 54 60 60 55 38 34 27 11 348 338 317 329 338 337 340 313 317 326 330 341 335
141 140 139 122 121 128 130 124 114 106 103 98 96 98 94 86 113 115 75 44 36 32 20 345 350 356 0 357 347 341 337 334 330 318 308 308 326 329
149 155 145 139 149 146 145 151 145 142 145 141 144 147 157 120 110 68 47 37 24 11 356 348 351 350 357 356 345 343 340 339 336 343 338 339 318 312